EW5649 Weather Reports


time (UTC)temp
C
wind
direction
speed
KPH
gust
KPH
rain 1hr
cm
rain 24hr
cm
rain mn
cm
humidity
%
barometer
mb
20190325013527 11 0.0 0.0 0.00 0.00 0.00 78 1020.2
20190325013027 11 0.0 0.0 0.00 0.00 0.00 78 1020.2
20190325012527 11 0.0 0.0 0.00 0.00 0.00 77 1020.2
20190325012024 11 0.0 0.0 0.00 0.00 0.00 75 1020.3
20190325011525 11 0.0 0.0 0.00 0.00 0.00 76 1020.2
20190325011026 11 0.0 0.0 0.00 0.00 0.00 75 1020.2
20190325010532 11 0.0 0.0 0.00 0.00 0.00 75 1020.3
20190325010025 12 0.0 1.6 0.00 0.00 0.00 73 1020.3
20190325005524 12 0.0 3.2 0.00 0.00 0.00 71 1020.3
20190325005024 12 0.0 1.6 0.00 0.00 0.00 72 1020.2
20190325004524 12 0.0 3.2 0.00 0.00 0.00 70 1020.3
20190325004025 12 0.0 1.6 0.00 0.00 0.00 72 1020.2
20190325003526 12 0.0 1.6 0.00 0.00 0.00 68 1020.2
20190325003026 12 90 1.6 3.2 0.00 0.00 0.00 67 1020.3
20190325002523 12 0.0 1.6 0.00 0.00 0.00 74 1020.4
20190325002025 12 0.0 0.0 0.00 0.00 0.00 73 1020.3
20190325001524 12 0.0 0.0 0.00 0.00 0.00 74 1020.4
20190325001024 12 0.0 0.0 0.00 0.00 0.00 74 1020.4
20190325000522 12 0.0 0.0 0.00 0.00 0.00 73 1020.5
20190325000022 12 0.0 3.2 0.00 0.00 0.00 68 1020.6
20190324235523 12 0.0 0.0 0.00 0.00 0.00 70 1020.6
20190324235023 12 0.0 0.0 0.00 0.00 0.00 70 1020.7
20190324234522 12 0.0 1.6 0.00 0.00 0.00 68 1020.8
20190324234022 12 0.0 1.6 0.00 0.00 0.00 68 1020.8
20190324233521 12 0.0 1.6 0.00 0.00 0.00 68 1020.8
20190324233021 12 90 1.6 4.8 0.00 0.00 0.00 66 1020.9
20190324232522 13 90 1.6 4.8 0.00 0.00 0.00 65 1020.9
20190324232022 13 0.0 1.6 0.00 0.00 0.00 65 1020.9
20190324231522 13 0.0 3.2 0.00 0.00 0.00 65 1020.8
20190324231021 13 90 1.6 3.2 0.00 0.00 0.00 64 1020.8
20190324230522 13 90 3.2 6.4 0.00 0.00 0.00 61 1020.8
20190324230022 13 135 1.6 6.4 0.00 0.00 0.00 62 1020.8
20190324225522 13 180 1.6 4.8 0.00 0.00 0.00 64 1020.8
20190324225021 13 112 1.6 6.4 0.00 0.00 0.00 64 1020.8
20190324224523 13 112 1.6 4.8 0.00 0.00 0.00 65 1020.9
20190324224021 13 0.0 3.2 0.00 0.00 0.00 65 1020.9
20190324223521 13 157 3.2 4.8 0.00 0.00 0.00 63 1020.9
20190324223024 13 180 1.6 6.4 0.00 0.00 0.00 62 1020.8
20190324222522 13 112 1.6 6.4 0.00 0.00 0.00 65 1020.9
20190324222022 13 157 3.2 8.0 0.00 0.00 0.00 65 1020.9
20190324221522 12 135 3.2 6.4 0.00 0.00 0.00 65 1021.0
20190324221022 13 180 3.2 8.0 0.00 0.00 0.00 65 1020.9
20190324220521 13 90 1.6 4.8 0.00 0.00 0.00 65 1021.0
20190324220021 13 90 3.2 6.4 0.00 0.00 0.00 64 1020.9
20190324215521 13 90 1.6 4.8 0.00 0.00 0.00 64 1020.9
20190324215021 13 112 1.6 8.0 0.00 0.00 0.00 66 1021.0
20190324214520 13 112 1.6 6.4 0.00 0.00 0.00 65 1021.0
20190324214021 13 67 3.2 6.4 0.00 0.00 0.00 65 1021.0
20190324213522 13 180 1.6 6.4 0.00 0.00 0.00 67 1021.1
20190324213021 12 90 1.6 4.8 0.00 0.00 0.00 66 1021.1
20190324212521 12 112 1.6 6.4 0.00 0.00 0.00 68 1021.2
20190324212021 12 135 3.2 6.4 0.00 0.00 0.00 66 1021.2
20190324211522 12 135 1.6 4.8 0.00 0.00 0.00 68 1021.3
20190324211022 12 112 1.6 4.8 0.00 0.00 0.00 69 1021.3
20190324210524 12 112 3.2 6.4 0.00 0.00 0.00 68 1021.3
20190324210023 12 90 3.2 6.4 0.00 0.00 0.00 68 1021.4
20190324205522 12 90 3.2 9.7 0.00 0.00 0.00 69 1021.3
20190324205021 12 135 3.2 6.4 0.00 0.00 0.00 68 1021.3
20190324204521 12 157 1.6 8.0 0.00 0.00 0.00 69 1021.4
20190324204020 12 135 3.2 6.4 0.00 0.00 0.00 69 1021.4
20190324203520 12 135 1.6 6.4 0.00 0.00 0.00 69 1021.4
20190324203023 12 112 1.6 4.8 0.00 0.00 0.00 71 1021.4
20190324202521 12 225 3.2 9.7 0.00 0.00 0.00 70 1021.5
20190324202022 12 90 3.2 6.4 0.00 0.00 0.00 71 1021.5
20190324201521 11 0.0 3.2 0.00 0.00 0.00 72 1021.6
20190324201023 11 112 1.6 6.4 0.00 0.00 0.00 71 1021.6
20190324200527 11 112 1.6 6.4 0.00 0.00 0.00 70 1021.6
20190324200025 11 112 3.2 6.4 0.00 0.00 0.00 71 1021.6
20190324195522 11 90 1.6 4.8 0.00 0.00 0.00 71 1021.6
20190324195026 11 180 1.6 4.8 0.00 0.00 0.00 71 1021.7
20190324194521 11 90 1.6 4.8 0.00 0.00 0.00 72 1021.7
20190324194023 11 157 1.6 6.4 0.00 0.00 0.00 72 1021.7
20190324193523 11 67 1.6 4.8 0.00 0.00 0.00 73 1021.7
20190324193022 11 112 1.6 6.4 0.00 0.00 0.00 71 1021.7
20190324192522 11 90 1.6 4.8 0.00 0.00 0.00 71 1021.7
20190324192021 11 112 1.6 4.8 0.00 0.00 0.00 73 1021.8
20190324191520 11 90 1.6 4.8 0.00 0.00 0.00 72 1021.8
20190324191023 11 157 1.6 6.4 0.00 0.00 0.00 73 1021.8
20190324190528 10 157 1.6 4.8 0.00 0.00 0.00 74 1021.8
20190324190021 10 157 1.6 3.2 0.00 0.00 0.00 74 1021.9
20190324185521 10 0.0 3.2 0.00 0.00 0.00 75 1021.9
20190324185021 10 157 1.6 3.2 0.00 0.00 0.00 74 1021.9
20190324184522 10 157 1.6 6.4 0.00 0.00 0.00 74 1022.0
20190324184021 10 157 1.6 3.2 0.00 0.00 0.00 74 1022.0
20190324183524 10 135 1.6 4.8 0.00 0.00 0.00 75 1022.0
20190324183020 10 0.0 3.2 0.00 0.00 0.00 74 1022.0
20190324182520 10 112 1.6 4.8 0.00 0.00 0.00 74 1021.9
20190324182020 10 135 1.6 3.2 0.00 0.00 0.00 73 1021.8
20190324181520 10 135 1.6 3.2 0.00 0.00 0.00 72 1022.0
20190324181021 11 112 1.6 4.8 0.00 0.00 0.00 70 1022.0
20190324180520 11 180 1.6 4.8 0.00 0.00 0.00 72 1022.0
20190324180020 11 90 1.6 4.8 0.00 0.00 0.00 71 1021.9
20190324175522 10 157 1.6 6.4 0.00 0.00 0.00 71 1022.0
20190324175020 10 112 1.6 4.8 0.00 0.00 0.00 72 1021.9
20190324174520 10 90 1.6 4.8 0.00 0.00 0.00 75 1021.8
20190324174020 10 90 1.6 6.4 0.00 0.00 0.00 75 1021.8
20190324173520 9 157 1.6 3.2 0.00 0.00 0.00 81 1021.8
20190324173021 8 0.0 3.2 0.00 0.00 0.00 83 1021.8
20190324172520 8 0.0 0.0 0.00 0.00 0.00 86 1021.7
20190324172021 8 0.0 1.6 0.00 0.00 0.00 86 1021.8
20190324171524 8 0.0 0.0 0.00 0.00 0.00 88 1021.7
20190324171022 8 0.0 0.0 0.00 0.00 0.00 87 1021.8
20190324170523 7 0.0 0.0 0.00 0.00 0.00 89 1021.8
20190324170020 7 0.0 0.0 0.00 0.00 0.00 88 1021.7
20190324165520 7 0.0 0.0 0.00 0.00 0.00 88 1021.7
20190324165025 7 0.0 0.0 0.00 0.00 0.00 89 1021.7
20190324164523 6 0.0 1.6 0.00 0.00 0.00 90 1021.7
20190324164026 6 0.0 0.0 0.00 0.00 0.00 91 1021.7
20190324163522 6 0.0 0.0 0.00 0.00 0.00 91 1021.6
20190324163022 6 0.0 0.0 0.00 0.00 0.00 92 1021.6
20190324162523 6 0.0 0.0 0.00 0.00 0.00 92 1021.6
20190324162020 6 0.0 0.0 0.00 0.00 0.00 93 1021.6
20190324161524 5 0.0 0.0 0.00 0.00 0.00 93 1021.5
20190324161023 5 0.0 0.0 0.00 0.00 0.00 93 1021.6
20190324160519 5 0.0 0.0 0.00 0.00 0.00 93 1021.7
20190324160023 5 0.0 0.0 0.00 0.00 0.00 93 1021.7
20190324155522 5 0.0 0.0 0.00 0.00 0.00 94 1021.7
20190324155024 5 0.0 0.0 0.00 0.00 0.00 94 1021.6
20190324154520 5 0.0 0.0 0.00 0.00 0.00 94 1021.6
20190324154023 5 0.0 0.0 0.00 0.00 0.00 94 1021.6
20190324153519 5 0.0 0.0 0.00 0.00 0.00 94 1021.7
20190324153021 5 0.0 0.0 0.00 0.00 0.00 94 1021.6
20190324152519 5 0.0 0.0 0.00 0.00 0.00 94 1021.6
20190324152019 5 0.0 0.0 0.00 0.00 0.00 94 1021.6
20190324151519 5 0.0 0.0 0.00 0.00 0.00 94 1021.5
20190324151019 5 0.0 0.0 0.00 0.00 0.00 94 1021.5
20190324150519 5 0.0 0.0 0.00 0.00 0.00 94 1021.5
20190324150020 5 0.0 0.0 0.00 0.00 0.00 93 1021.5
20190324145519 5 0.0 0.0 0.00 0.00 0.00 93 1021.5
20190324145019 5 0.0 0.0 0.00 0.00 0.00 93 1021.4
20190324144519 4 0.0 1.6 0.00 0.00 0.00 93 1021.4
20190324144019 4 0.0 3.2 0.00 0.00 0.00 93 1021.4
20190324143519 4 0.0 4.8 0.00 0.00 0.00 94 1021.4
20190324143019 4 0.0 0.0 0.00 0.00 0.00 94 1021.4
20190324142519 4 0.0 6.4 0.00 0.00 0.00 94 1021.4
20190324142019 3 112 1.6 6.4 0.00 0.00 0.00 95 1021.5
20190324141519 3 0.0 0.0 0.00 0.00 0.00 95 1021.4
20190324141019 3 0.0 0.0 0.00 0.00 0.00 94 1021.5
20190324140519 3 0.0 0.0 0.00 0.00 0.00 94 1021.5
20190324140021 3 0.0 0.0 0.00 0.00 0.00 94 1021.5
20190324135519 3 0.0 0.0 0.00 0.00 0.00 94 1021.6
20190324135021 3 0.0 0.0 0.00 0.00 0.00 94 1021.7
20190324134522 3 0.0 0.0 0.00 0.00 0.00 94 1021.6
20190324134021 3 0.0 0.0 0.00 0.00 0.00 94 1021.6
20190324133520 3 0.0 0.0 0.00 0.00 0.00 94 1021.6
20190324133021 3 0.0 0.0 0.00 0.00 0.00 94 1021.7
20190324132520 3 0.0 0.0 0.00 0.00 0.00 94 1021.7
20190324132020 3 0.0 0.0 0.00 0.00 0.00 94 1021.7
20190324131520 3 0.0 0.0 0.00 0.00 0.00 94 1021.7
20190324131021 4 0.0 0.0 0.00 0.00 0.00 94 1021.8
20190324130523 4 0.0 0.0 0.00 0.00 0.00 94 1021.9
20190324130021 4 0.0 0.0 0.00 0.00 0.00 94 1021.8
20190324125521 4 0.0 0.0 0.00 0.00 0.00 94 1021.8
20190324125019 4 0.0 0.0 0.00 0.00 0.00 94 1021.8
20190324124522 4 0.0 0.0 0.00 0.00 0.00 94 1021.9
20190324124021 4 0.0 0.0 0.00 0.00 0.00 94 1021.9
20190324123522 4 0.0 0.0 0.00 0.00 0.00 94 1021.9
20190324123021 4 0.0 0.0 0.00 0.00 0.00 94 1021.9
20190324122521 4 0.0 0.0 0.00 0.00 0.00 93 1022.0
20190324122021 4 0.0 0.0 0.00 0.00 0.00 93 1022.0
20190324121521 5 0.0 0.0 0.00 0.00 0.00 93 1022.0
20190324121022 5 0.0 0.0 0.00 0.00 0.00 93 1021.9
20190324120521 5 0.0 0.0 0.00 0.00 0.00 93 1021.9
20190324120020 5 0.0 0.0 0.00 0.00 0.00 92 1021.9
20190324115521 5 0.0 0.0 0.00 0.00 0.00 92 1021.9
20190324115021 5 0.0 0.0 0.00 0.00 0.00 92 1021.9
20190324114521 5 0.0 0.0 0.00 0.00 0.00 92 1021.9
20190324114021 5 0.0 1.6 0.00 0.00 0.00 93 1021.9
20190324113520 5 0.0 0.0 0.00 0.00 0.00 93 1021.9
20190324113020 5 0.0 0.0 0.00 0.00 0.00 93 1021.9
20190324112520 5 0.0 0.0 0.00 0.00 0.00 93 1021.8
20190324112020 5 0.0 0.0 0.00 0.00 0.00 93 1021.9
20190324111520 5 0.0 0.0 0.00 0.00 0.00 93 1021.9
20190324111020 5 0.0 0.0 0.00 0.00 0.00 93 1021.8
20190324110521 5 0.0 0.0 0.00 0.00 0.00 93 1021.9
20190324110021 5 0.0 0.0 0.00 0.00 0.00 92 1021.9
20190324105520 5 0.0 0.0 0.00 0.00 0.00 93 1021.9
20190324105020 5 0.0 0.0 0.00 0.00 0.00 93 1021.9
20190324104520 5 0.0 0.0 0.00 0.00 0.00 92 1021.9
20190324104020 5 0.0 0.0 0.00 0.00 0.00 92 1021.9
20190324103520 5 0.0 0.0 0.00 0.00 0.00 92 1022.0
20190324103022 5 0.0 0.0 0.00 0.00 0.00 92 1021.9
20190324102520 5 0.0 1.6 0.00 0.00 0.00 93 1021.9
20190324102024 5 0.0 1.6 0.00 0.00 0.00 93 1021.9
20190324101525 5 0.0 0.0 0.00 0.00 0.00 93 1022.0
20190324101020 5 0.0 0.0 0.00 0.00 0.00 93 1022.0
20190324100520 5 0.0 0.0 0.00 0.00 0.00 91 1022.1
20190324100021 5 0.0 0.0 0.00 0.00 0.00 91 1022.1
20190324095526 5 0.0 0.0 0.00 0.00 0.00 90 1022.1
20190324095020 5 0.0 0.0 0.00 0.00 0.00 90 1022.1
20190324094522 5 0.0 0.0 0.00 0.00 0.00 89 1022.0
20190324094021 5 0.0 0.0 0.00 0.00 0.00 89 1022.1
20190324093525 5 0.0 0.0 0.00 0.00 0.00 89 1022.0
20190324093021 6 0.0 1.6 0.00 0.00 0.00 89 1022.0
20190324092521 6 0.0 1.6 0.00 0.00 0.00 89 1022.0
20190324092020 6 0.0 1.6 0.00 0.00 0.00 89 1021.9
20190324091520 6 0.0 3.2 0.00 0.00 0.00 89 1021.9
20190324091020 6 0.0 0.0 0.00 0.00 0.00 90 1021.8
20190324090521 6 0.0 0.0 0.00 0.00 0.00 90 1021.8
20190324090020 6 0.0 0.0 0.00 0.00 0.00 90 1021.8
20190324085520 6 0.0 0.0 0.00 0.00 0.00 90 1021.8
20190324085021 5 0.0 0.0 0.00 0.00 0.00 90 1021.8
20190324084521 6 0.0 0.0 0.00 0.00 0.00 90 1021.7
20190324084021 6 0.0 4.8 0.00 0.00 0.00 90 1021.7
20190324083522 5 0.0 0.0 0.00 0.00 0.00 90 1021.7
20190324083021 6 0.0 0.0 0.00 0.00 0.00 90 1021.7
20190324082521 6 0.0 0.0 0.00 0.00 0.00 89 1021.7
20190324082020 6 0.0 0.0 0.00 0.00 0.00 89 1021.7
20190324081521 6 0.0 0.0 0.00 0.00 0.00 89 1021.7
20190324081021 6 0.0 3.2 0.00 0.00 0.00 88 1021.8
20190324080520 6 0.0 3.2 0.00 0.00 0.00 88 1021.8
20190324080021 6 0.0 0.0 0.00 0.00 0.00 89 1021.8
20190324075521 6 0.0 4.8 0.00 0.00 0.00 88 1021.7
20190324075023 6 0.0 4.8 0.00 0.00 0.00 90 1021.8
20190324074526 6 0.0 0.0 0.00 0.00 0.00 90 1021.8
20190324074024 6 0.0 0.0 0.00 0.00 0.00 90 1021.9
20190324073524 6 0.0 0.0 0.00 0.00 0.00 90 1021.9
20190324073026 6 0.0 0.0 0.00 0.00 0.00 90 1021.9
20190324072522 6 0.0 0.0 0.00 0.00 0.00 89 1022.0
20190324072025 6 0.0 0.0 0.00 0.00 0.00 89 1021.9
20190324071524 6 0.0 0.0 0.00 0.00 0.00 89 1021.9
20190324071023 6 0.0 0.0 0.00 0.00 0.00 88 1022.0
20190324070531 6 0.0 0.0 0.00 0.00 0.00 88 1022.0
20190324070026 6 0.0 0.0 0.00 0.00 0.00 88 1022.0
20190324065525 6 0.0 0.0 0.00 0.00 0.00 87 1022.0
20190324065023 6 0.0 0.0 0.00 0.00 0.00 88 1022.0
20190324064527 6 0.0 0.0 0.00 0.00 0.00 88 1022.1
20190324064031 6 0.0 0.0 0.00 0.00 0.00 87 1022.1
20190324063523 6 0.0 0.0 0.00 0.00 0.00 89 1022.2
20190324063029 6 0.0 0.0 0.00 0.00 0.00 89 1022.1
20190324062525 6 0.0 0.0 0.00 0.00 0.00 89 1022.1
20190324062023 6 0.0 0.0 0.00 0.00 0.00 89 1022.2
20190324061532 6 0.0 0.0 0.00 0.00 0.00 88 1022.2
20190324061026 6 0.0 0.0 0.00 0.00 0.00 90 1022.2
20190324060545 6 0.0 0.0 0.00 0.00 0.00 89 1022.1
20190324060028 6 0.0 0.0 0.00 0.00 0.00 88 1022.2
20190324055525 6 0.0 0.0 0.00 0.00 0.00 88 1022.1
20190324055024 6 0.0 0.0 0.00 0.00 0.00 88 1022.2
20190324054526 6 0.0 0.0 0.00 0.00 0.00 88 1022.1
20190324054025 6 0.0 0.0 0.00 0.00 0.00 88 1022.1
20190324053526 6 0.0 0.0 0.00 0.00 0.00 88 1022.2
20190324053025 6 0.0 0.0 0.00 0.00 0.00 88 1022.2
20190324052526 6 0.0 0.0 0.00 0.00 0.00 88 1022.0
20190324052033 6 0.0 0.0 0.00 0.00 0.00 89 1022.0
20190324051525 6 0.0 0.0 0.00 0.00 0.00 88 1022.0
20190324051033 6 0.0 0.0 0.00 0.00 0.00 88 1022.0
20190324050545 6 0.0 0.0 0.00 0.00 0.00 88 1022.0
20190324050036 6 0.0 0.0 0.00 0.00 0.00 88 1022.0
20190324045524 6 0.0 0.0 0.00 0.00 0.00 87 1022.0
20190324045023 6 0.0 0.0 0.00 0.00 0.00 86 1022.1
20190324044523 7 0.0 0.0 0.00 0.00 0.00 86 1022.1
20190324044024 7 0.0 0.0 0.00 0.00 0.00 85 1022.1
20190324043528 7 0.0 0.0 0.00 0.00 0.00 85 1022.0
20190324043031 7 0.0 0.0 0.00 0.00 0.00 84 1021.9
20190324042526 7 0.0 0.0 0.00 0.00 0.00 84 1021.9
20190324042025 7 0.0 0.0 0.00 0.00 0.00 85 1021.8
20190324041525 7 0.0 0.0 0.00 0.00 0.00 84 1021.7
20190324041023 7 0.0 0.0 0.00 0.00 0.00 83 1021.6
20190324040530 7 0.0 0.0 0.00 0.00 0.00 83 1021.5
20190324040024 7 0.0 0.0 0.00 0.00 0.00 84 1021.6
20190324035529 7 0.0 0.0 0.00 0.00 0.00 83 1021.5
20190324035033 7 0.0 0.0 0.00 0.00 0.00 83 1021.4
20190324034531 7 0.0 0.0 0.00 0.00 0.00 83 1021.3
20190324034025 7 0.0 0.0 0.00 0.00 0.00 83 1021.3
20190324033536 7 0.0 0.0 0.00 0.00 0.00 83 1021.3
20190324033039 7 0.0 0.0 0.00 0.00 0.00 83 1021.3
20190324032525 7 0.0 0.0 0.00 0.00 0.00 82 1021.2
20190324032028 7 0.0 0.0 0.00 0.00 0.00 83 1021.1
20190324031525 8 0.0 0.0 0.00 0.00 0.00 82 1021.2
20190324031024 8 0.0 0.0 0.00 0.00 0.00 82 1021.1
20190324030523 8 0.0 0.0 0.00 0.00 0.00 81 1021.1
20190324030023 8 0.0 0.0 0.00 0.00 0.00 81 1021.1
20190324025528 8 0.0 0.0 0.00 0.00 0.00 81 1021.2
20190324025023 8 0.0 0.0 0.00 0.00 0.00 80 1021.2
20190324024522 8 0.0 0.0 0.00 0.00 0.00 80 1021.2
20190324024023 8 0.0 0.0 0.00 0.00 0.00 80 1021.2
20190324023523 9 0.0 0.0 0.00 0.00 0.00 79 1021.2
20190324023022 9 0.0 0.0 0.00 0.00 0.00 78 1021.2
20190324022524 9 0.0 0.0 0.00 0.00 0.00 78 1021.2
20190324022023 10 0.0 0.0 0.00 0.00 0.00 77 1021.2
20190324021524 10 0.0 0.0 0.00 0.00 0.00 76 1021.1
20190324021025 10 0.0 0.0 0.00 0.00 0.00 77 1021.1
20190324020529 10 0.0 0.0 0.00 0.00 0.00 77 1021.2
20190324020023 10 0.0 0.0 0.00 0.00 0.00 77 1021.1
20190324015525 10 0.0 0.0 0.00 0.00 0.00 77 1021.1
20190324015025 11 0.0 0.0 0.00 0.00 0.00 76 1021.0
20190324014525 11 0.0 0.0 0.00 0.00 0.00 75 1021.0
20190324014025 11 0.0 0.0 0.00 0.00 0.00 74 1021.1